Temp
16 17 18 19 19 20 20 20 20 21 21 21 21 21 21 21 21 21 21 22 22 22 22 22 22 22 23 23 23 23 24 24 23 24 25 24 22 22 23 23 23 23 23 23 23 24 26 27 27 26 27 27 26 25 24 24 24 25 27 27 25 26 26 27 28 27 26 27 26 25 25 26 26 26 26 25 25 25 26 26 24 22 21 20 19 18 18 18
15 15 16 17 19 19 19 19 20 20 21 21 21 21 21 21 21 21 21 21 22 22 22 22 22 22 22 23 23 23 24 23 24 25 24 22 22 22 22 23 23 23 23 24 25 26 27 27 27 27 27 27 26 25 25 25 25 26 28 27 26 27 27 27 27 27 27 26 26 25 24 25 26 25 25 25 26 26 27 26 24 22 21 20 19 19 18 19
15 15 16 16 17 18 18 19 19 20 21 21 21 21 21 21 21 21 21 21 21 21 22 22 22 22 22 23 23 23 23 23 25 25 23 21 22 22 22 23 23 23 23 24 25 25 26 27 27 27 27 27 26 26 26 25 25 26 27 27 27 26 26 26 26 26 26 26 26 25 24 24 25 25 25 25 26 26 26 25 25 24 22 21 20 19 18 18
15 15 16 16 16 17 17 18 19 19 20 20 20 21 21 20 20 21 21 20 21 21 21 21 22 22 22 23 23 23 22 23 26 24 22 22 22 22 23 23 23 23 23 23 24 24 25 26 27 27 27 27 26 26 26 25 25 26 26 27 26 26 26 26 26 25 25 25 25 25 24 24 24 24 24 24 25 26 25 22 22 22 21 20 19 18 18 18
14 14 15 16 16 17 17 17 18 19 19 19 19 20 20 20 20 20 20 20 21 21 21 21 21 22 22 22 23 23 22 24 25 24 23 23 23 23 23 23 23 24 23 23 24 24 25 26 26 26 26 27 26 26 26 25 24 26 27 26 26 26 26 25 25 24 24 24 24 24 24 24 24 24 24 24 25 24 21 19 19 19 18 18 18 18 18 18
12 12 12 14 14 15 16 17 17 18 18 18 18 19 20 20 20 20 19 20 20 20 21 21 21 21 22 22 22 22 23 25 24 24 23 23 23 23 23 23 23 23 23 24 25 25 26 26 26 26 27 27 27 26 26 25 24 26 26 26 25 25 25 25 24 23 23 23 23 24 24 24 24 24 24 24 23 20 18 18 18 17 17 17 17 18 17 17
10 10 11 11 12 13 14 15 16 17 18 18 18 18 19 19 19 19 19 19 20 20 20 21 21 21 22 22 22 23 24 25 24 24 24 23 23 23 23 23 23 23 23 24 25 25 26 26 26 26 27 27 27 26 25 25 24 25 26 25 25 24 24 25 24 22 22 23 24 24 23 23 24 24 24 23 21 18 17 17 17 17 17 17 18 17 17 16
9 10 10 10 11 12 13 14 16 17 17 17 18 18 18 18 18 19 19 19 19 20 20 20 21 21 21 22 22 24 25 25 23 23 23 23 23 23 23 23 23 23 23 25 25 25 25 26 26 26 26 26 26 26 24 25 25 25 26 25 24 24 24 24 23 23 23 23 23 23 22 23 24 24 23 22 19 17 17 17 17 17 17 17 17 16 17 16
9 9 9 10 11 11 12 13 14 15 15 15 17 17 17 17 18 18 18 19 19 19 20 20 20 20 21 22 23 25 24 23 22 23 22 22 22 23 23 22 22 23 23 24 24 25 25 25 26 26 26 25 25 25 24 24 25 25 25 24 24 24 25 24 24 24 24 23 23 22 23 24 24 23 23 21 18 17 17 17 17 17 17 17 16 16 16 16
9 9 9 10 11 11 12 11 12 14 13 12 14 15 16 17 17 18 18 18 19 19 19 20 20 20 21 22 24 25 23 21 22 22 22 22 22 22 22 22 22 23 24 24 24 25 25 25 25 25 25 25 25 25 24 24 24 24 24 24 24 24 25 24 24 24 24 24 23 22 24 24 22 22 22 20 18 17 17 17 17 17 17 16 16 15 15 15
9 9 10 10 10 11 11 10 10 12 12 11 12 14 15 16 17 17 18 18 18 18 19 19 20 20 21 22 24 24 22 21 21 21 21 21 21 21 21 21 21 22 24 24 24 24 24 25 25 25 24 25 25 24 24 23 23 23 23 23 24 24 24 24 24 24 24 23 23 23 24 23 21 22 22 19 17 17 18 18 17 17 17 16 15 15 15 15
9 10 10 10 10 10 10 9 9 11 11 11 11 13 15 16 17 17 17 18 18 18 19 19 19 20 20 22 24 23 21 21 21 21 21 21 21 21 21 21 21 22 23 24 24 23 23 23 24 25 24 25 25 24 23 22 23 23 22 23 25 25 25 25 25 23 23 23 22 23 23 22 22 22 20 18 17 18 18 18 17 17 16 16 15 15 14 14
9 10 10 11 11 10 9 10 9 10 10 10 11 12 14 16 16 17 17 17 18 18 18 19 19 19 20 23 22 21 21 21 21 21 21 21 21 21 21 21 21 21 21 23 23 22 22 22 23 24 24 24 25 23 22 22 22 23 23 23 24 25 25 25 24 22 23 22 22 23 22 23 23 21 19 18 18 18 18 18 18 17 16 16 15 15 14 14
9 10 10 11 11 10 9 9 9 9 9 10 10 11 14 16 16 17 17 17 17 18 18 18 19 19 21 22 21 20 21 20 20 20 20 20 20 20 20 20 20 21 21 21 22 21 21 22 23 24 23 23 23 22 22 23 22 23 24 23 23 23 23 24 23 23 23 21 22 22 22 23 23 20 18 18 18 18 19 19 18 17 16 16 15 15 14 13
9 10 10 11 10 10 10 9 9 9 9 10 10 11 13 15 16 16 17 17 17 18 18 18 19 19 21 22 20 19 19 19 19 19 19 20 20 20 20 19 20 20 20 21 21 21 21 22 23 24 23 22 22 22 23 24 23 24 23 22 24 23 23 24 23 23 24 22 22 22 22 24 23 20 18 17 18 18 19 19 18 17 16 16 15 15 14 14
9 10 10 11 11 11 10 10 9 9 9 10 11 12 14 15 16 16 16 17 17 17 18 19 19 19 21 22 19 18 19 19 19 19 19 19 20 21 20 20 20 20 20 20 20 21 21 22 22 22 22 22 22 23 23 23 23 24 22 21 23 23 23 24 22 22 23 23 23 22 23 24 23 20 18 17 18 19 19 19 18 17 16 16 15 15 14 14
10 10 10 11 11 11 10 10 10 10 10 10 11 12 13 15 15 16 16 16 17 17 17 19 19 19 21 21 19 20 20 19 18 18 18 19 19 20 20 20 21 21 21 20 20 21 22 22 21 21 22 22 23 23 22 21 21 23 23 22 23 23 23 23 22 22 22 22 23 23 23 24 23 20 18 18 18 19 19 19 18 17 16 15 15 14 14 14
10 10 11 11 11 11 11 10 10 10 10 10 11 12 13 15 15 15 15 16 17 17 18 18 19 20 21 20 20 21 20 18 17 17 18 18 19 20 20 21 21 21 21 21 21 21 22 22 21 22 23 22 23 23 21 21 22 22 22 22 22 23 23 23 23 22 22 23 23 23 23 24 23 20 19 18 18 19 19 19 17 17 16 15 15 14 14 13
10 10 10 11 11 11 11 10 10 10 10 10 11 13 14 15 15 15 15 16 17 19 20 19 20 21 21 21 21 19 17 17 17 17 18 18 19 19 21 21 21 22 22 21 21 22 22 21 21 21 22 22 23 23 22 23 24 24 23 22 22 22 23 24 24 22 23 23 23 23 23 24 24 21 19 18 17 18 19 18 17 16 15 15 14 14 13 13
10 10 10 10 11 10 10 10 10 10 10 11 12 13 15 16 17 17 16 16 18 21 22 21 21 22 21 21 19 17 17 17 18 18 18 18 19 20 21 21 21 21 21 22 21 21 21 21 21 21 22 24 24 24 24 25 24 23 23 22 22 22 22 24 23 21 22 22 22 23 23 23 24 22 19 18 17 18 18 17 16 16 15 15 14 14 13 12
11 10 10 11 11 11 10 10 10 10 11 11 12 15 18 19 19 19 18 18 19 21 22 22 22 22 22 20 18 18 19 19 18 19 17 18 20 20 21 20 20 20 21 22 21 20 20 20 21 22 23 24 25 24 24 24 23 23 22 22 22 22 22 24 23 21 21 21 21 23 23 22 23 23 19 17 17 18 18 18 17 16 15 14 14 13 12 12
11 11 11 11 11 11 11 10 10 10 10 11 12 15 18 17 17 17 18 20 20 20 20 21 21 21 21 20 18 19 21 20 19 18 17 18 20 20 21 20 20 21 21 21 21 20 19 20 22 24 24 24 23 24 24 23 23 22 22 21 21 22 23 23 22 20 20 20 21 22 22 22 23 22 18 17 18 18 17 17 16 16 15 14 14 13 12 11
11 11 11 11 11 11 11 10 10 10 10 11 12 14 16 15 16 16 17 19 20 20 20 20 20 20 20 20 18 18 20 21 21 19 17 18 19 20 21 20 21 22 21 20 21 20 20 21 23 24 23 22 22 22 22 22 22 22 21 21 21 22 22 21 20 19 20 20 20 21 20 21 23 20 17 17 17 16 14 14 14 14 14 14 13 13 12 12
11 11 11 11 11 11 10 9 10 10 10 11 12 14 15 15 16 16 17 19 20 21 20 20 20 20 21 19 18 19 20 21 22 20 18 18 20 20 20 21 21 22 21 21 21 21 22 22 22 23 22 22 22 21 21 21 21 21 21 21 21 22 22 21 21 20 20 20 19 20 19 20 22 21 18 16 15 14 13 12 12 12 13 13 12 11 12 12
11 11 12 11 11 11 10 9 10 10 11 11 12 13 14 15 16 16 17 19 20 20 18 19 19 20 20 19 18 20 20 21 22 21 18 19 21 20 20 21 21 21 21 21 21 21 22 21 21 22 21 21 21 21 21 21 21 21 22 21 21 22 22 22 21 20 19 20 19 19 20 20 23 23 20 16 13 14 13 13 13 12 12 11 11 11 11 10
11 11 12 11 11 11 10 10 11 11 11 11 12 14 15 15 16 16 18 19 20 19 18 18 19 19 19 19 19 20 20 20 20 19 18 18 20 20 20 21 21 21 22 22 21 21 21 20 20 21 20 20 20 20 21 21 20 20 20 21 21 21 21 21 21 19 19 20 19 19 19 20 21 23 21 17 15 15 13 13 14 13 12 12 12 12 11 10
11 11 11 11 11 10 10 12 11 11 12 13 13 15 15 16 15 16 18 19 19 20 18 17 18 18 18 19 19 20 19 18 17 17 17 17 19 20 20 20 20 19 21 21 20 20 20 18 19 20 20 20 19 20 21 20 20 20 18 19 20 20 20 20 20 19 19 20 19 18 19 20 20 21 21 18 17 16 14 13 14 14 13 12 12 12 11 11
12 11 11 11 11 10 11 12 12 12 13 14 14 15 15 16 15 16 18 18 19 21 19 17 17 17 17 18 19 19 17 17 18 17 16 16 18 19 19 20 20 20 20 20 19 20 20 19 19 19 19 20 20 21 21 21 20 18 16 18 19 20 20 20 19 19 19 19 18 19 19 19 19 21 20 18 18 18 16 15 14 14 14 13 12 12 11 11
12 11 11 11 11 10 11 12 12 13 14 14 14 15 15 15 15 17 16 17 20 20 19 17 16 16 16 16 18 18 16 17 17 16 15 16 17 18 18 19 21 21 20 20 20 19 18 17 18 19 19 20 20 18 19 20 20 17 16 18 18 18 19 19 19 19 19 18 18 20 20 19 20 21 20 18 19 21 20 17 16 15 14 13 13 12 11 11
11 11 11 11 10 10 10 11 12 13 13 14 14 14 14 14 16 17 15 17 22 20 17 17 16 16 16 16 17 17 17 17 16 15 16 17 17 17 18 18 20 20 19 19 19 18 16 15 15 17 19 19 18 15 14 16 18 17 18 18 18 18 19 18 19 19 18 17 18 20 20 19 19 21 22 21 20 23 22 18 17 16 14 13 13 12 11 10
11 11 11 11 10 10 11 11 12 12 12 14 14 14 15 15 15 16 16 18 21 19 17 17 16 16 17 17 17 17 17 16 16 16 16 17 17 17 17 18 18 18 17 17 18 17 16 15 16 16 16 17 17 15 14 14 15 17 19 19 18 18 18 18 19 18 17 17 19 19 20 20 19 20 23 23 21 22 21 19 18 16 14 13 13 12 11 10
11 11 11 11 11 11 11 12 12 12 12 13 14 14 15 15 15 16 17 20 20 19 18 17 16 16 17 18 18 16 16 16 16 17 17 16 16 17 17 18 18 17 17 17 17 17 16 17 17 15 14 16 17 16 15 14 15 17 18 18 17 18 17 17 18 17 17 18 17 17 18 18 19 21 23 23 21 20 20 19 18 16 14 13 12 12 11 10
11 11 11 11 11 11 11 11 12 12 12 13 14 15 15 15 15 17 18 20 20 18 18 18 17 17 17 18 17 16 16 16 16 17 17 17 17 17 17 18 19 18 18 18 17 17 17 17 17 15 15 16 17 17 16 15 16 17 18 18 17 18 17 16 18 18 18 18 16 16 17 17 19 21 23 21 18 17 16 16 17 16 14 13 12 11 11 10
12 11 11 11 11 11 11 11 12 12 11 12 13 14 14 15 16 17 18 19 19 17 17 17 17 17 17 17 17 16 16 16 16 17 17 17 17 17 17 18 19 19 19 19 18 18 18 18 17 16 16 16 16 18 19 17 16 17 18 19 18 18 18 18 19 19 19 17 15 15 17 18 20 19 18 16 14 13 13 13 15 16 14 13 12 11 10 10
12 12 11 11 11 11 11 11 11 12 11 12 13 13 14 15 17 17 18 19 18 17 17 17 17 16 17 17 16 17 17 17 16 16 16 16 17 17 18 18 18 19 18 18 19 18 18 19 18 16 16 16 16 18 20 19 17 17 18 19 18 19 20 18 17 17 18 17 16 15 17 20 20 16 14 13 12 12 12 12 13 15 14 13 11 11 10 10
12 11 11 11 11 11 11 11 11 12 11 12 13 13 14 16 17 17 18 19 18 17 16 16 16 16 17 17 15 16 17 17 16 16 16 16 17 17 18 19 18 18 19 19 19 19 18 18 16 14 15 16 16 17 18 18 17 17 17 17 17 18 19 18 15 15 16 18 18 17 17 20 20 17 14 13 14 13 12 12 13 14 13 12 11 11 10 10
11 11 11 11 11 11 11 11 11 11 11 12 13 13 15 16 16 17 17 17 18 17 17 17 17 17 17 17 16 16 16 16 16 16 16 16 17 18 18 19 19 18 19 20 20 20 20 18 14 14 15 14 12 14 16 17 17 17 17 17 18 17 17 18 18 17 17 18 19 18 18 19 20 18 16 14 15 15 13 12 12 12 12 12 11 11 11 11
11 11 11 11 11 11 11 11 11 11 11 13 13 14 14 15 15 16 16 16 17 17 17 17 18 18 17 17 16 15 15 16 15 16 17 17 17 19 18 18 19 19 19 19 20 20 20 18 15 13 14 13 12 14 16 15 15 16 16 17 18 17 17 18 18 18 18 18 19 19 18 19 20 19 18 17 17 16 14 12 12 12 12 12 12 11 11 11
11 11 12 12 12 11 11 11 10 11 12 13 13 14 14 15 15 16 16 16 17 17 17 17 17 17 17 17 17 15 13 15 15 15 17 17 17 19 18 17 18 18 18 18 18 19 19 19 16 13 13 14 13 14 15 15 15 14 15 17 17 17 18 18 18 19 18 18 19 19 18 18 21 21 20 19 20 18 15 13 12 13 12 13 13 12 11 11
11 11 12 13 12 11 11 10 10 11 12 13 12 13 14 14 15 15 16 16 16 16 17 18 17 16 17 16 16 15 13 15 15 15 17 17 17 18 18 19 18 17 17 17 18 19 18 18 17 13 12 14 14 15 16 17 16 14 15 16 16 16 17 18 19 19 19 18 19 19 18 19 21 21 21 21 21 19 16 13 13 14 13 13 13 12 12 11
11 12 12 11 12 11 10 10 11 12 12 13 13 13 14 15 15 15 15 15 15 14 15 16 16 16 16 16 16 15 14 14 14 15 16 17 18 18 17 16 17 16 15 16 17 18 17 18 17 14 12 14 15 15 14 15 16 16 16 16 17 17 17 17 17 18 18 18 19 18 19 20 19 19 20 21 21 21 18 15 15 14 14 14 13 13 12 11
11 12 11 10 11 11 10 11 12 12 12 13 13 13 14 14 15 14 13 14 14 13 13 14 15 15 15 15 15 14 14 14 13 14 15 15 18 18 14 13 15 15 15 16 16 16 17 17 17 16 15 15 14 13 11 11 13 15 16 17 18 18 17 17 18 17 16 16 17 17 17 18 17 15 16 17 18 19 18 17 16 15 15 15 14 13 12 12
12 11 9 9 10 10 11 12 12 12 12 12 14 14 14 14 14 14 13 13 14 13 13 13 14 15 15 15 14 14 14 14 13 14 14 15 16 14 11 11 14 15 16 16 15 15 16 16 16 16 15 14 14 13 12 11 12 14 15 16 17 18 18 18 18 18 17 16 16 16 17 18 16 14 13 14 13 14 15 16 17 16 15 15 14 13 13 12
11 10 8 8 9 10 11 12 12 11 11 12 13 13 12 13 14 14 13 13 13 13 13 14 14 15 15 15 14 14 14 14 14 13 14 15 14 10 9 11 13 15 16 14 14 15 16 15 15 15 14 14 14 14 14 12 12 14 16 16 17 18 18 17 17 17 17 17 18 17 17 18 16 13 12 13 13 13 13 14 16 15 15 14 14 13 13 12
9 9 9 8 8 9 11 12 12 12 12 12 13 13 12 12 12 13 14 14 13 13 13 13 14 14 14 14 13 14 13 14 14 13 13 14 12 9 8 9 11 14 14 12 13 15 15 15 15 14 14 15 15 15 15 14 13 13 15 15 16 16 16 16 17 17 17 17 17 17 18 18 16 14 14 14 13 14 14 13 13 14 14 13 13 13 12 12
11 11 9 9 8 9 9 10 11 13 12 12 12 12 12 12 11 11 13 13 13 13 13 13 13 13 13 13 13 13 13 13 13 13 12 13 12 9 8 8 9 11 11 10 11 13 14 15 15 15 16 16 15 15 15 15 14 14 14 14 14 15 16 16 17 17 17 16 16 17 18 17 15 15 16 15 14 15 16 14 12 12 12 12 12 12 12 11
11 12 10 10 10 9 9 9 10 12 13 12 12 12 12 12 11 11 11 12 12 12 12 11 12 12 12 12 13 13 13 13 12 12 12 12 11 8 7 8 8 9 9 10 11 12 12 13 14 15 15 15 13 12 13 15 15 15 14 14 14 15 15 15 15 16 16 16 15 17 18 17 16 16 16 15 14 15 17 16 14 13 12 12 11 11 11 11
10 11 11 11 11 11 10 10 10 11 12 13 12 12 12 12 11 11 11 11 11 12 12 11 11 12 13 13 13 12 12 12 12 11 12 12 10 9 8 8 8 8 9 9 10 11 12 12 13 14 14 13 12 12 12 14 14 15 15 14 14 14 14 14 14 16 16 15 15 16 16 16 17 17 17 16 15 15 17 16 15 14 13 11 11 10 10 10
8 9 9 10 11 11 11 11 11 10 11 12 12 12 12 11 11 12 11 10 10 11 12 11 11 12 13 13 12 12 11 12 12 11 11 11 10 10 10 10 9 8 9 9 10 10 11 12 12 12 12 12 11 11 12 12 13 14 14 14 14 13 13 13 14 15 15 15 15 15 15 15 16 17 17 17 16 16 16 15 14 13 12 11 11 10 10 10
8 9 9 9 9 10 11 11 11 10 11 11 11 11 11 12 12 12 11 10 10 10 11 12 12 12 12 12 12 11 11 12 13 12 11 11 10 10 10 11 10 8 8 10 10 10 10 11 11 10 11 12 10 9 10 11 11 12 12 13 14 13 13 12 13 13 13 13 14 14 14 14 16 17 17 15 15 15 14 13 14 13 12 11 11 11 10 10
6 6 8 9 10 9 10 11 10 10 10 10 10 11 11 11 12 12 11 11 11 11 10 11 12 11 11 11 11 11 12 12 12 11 11 11 10 10 10 11 10 8 8 9 9 9 9 10 9 10 11 12 9 8 9 9 9 10 11 12 12 13 13 12 12 13 12 13 13 12 13 13 15 16 15 14 14 14 14 14 14 13 13 12 11 11 11 11
5 5 6 9 10 9 9 10 10 10 11 10 10 11 11 11 12 12 10 10 10 10 11 11 12 11 10 10 11 11 11 10 9 9 9 9 9 9 9 9 9 9 8 8 8 8 9 10 10 10 12 11 8 8 9 9 9 10 11 12 12 13 13 13 12 12 12 13 12 12 13 14 14 14 13 13 13 13 14 14 14 13 13 12 12 12 12 12
Height
807 807 807 807 808 808 808 808 808 808 809 809 809 809 809 809 809 810 810 810 810 810 810 809 809 809 808 807 806 805 805 803 803 802 801 801 801 802 802 803 803 803 803 803 804 803 803 802 802 802 801 802 803 804 805 805 805 806 808 811 811 810 812 811 810 811 812 814 816 817 817 817 817 815 813 814 816 815 813 814 817 819 821 823 825 826 825 825
807 807 807 807 807 807 808 808 808 808 808 808 809 809 809 809 809 810 810 810 810 810 809 809 809 808 807 807 806 805 804 803 802 801 802 802 801 801 802 803 803 803 803 804 804 803 802 802 802 801 801 802 804 805 806 806 805 808 808 809 811 811 811 809 809 810 811 814 816 816 818 818 817 816 814 816 816 814 814 814 817 821 823 824 825 826 826 825
806 807 807 807 807 807 808 808 808 808 808 809 809 809 809 809 809 809 810 810 809 809 809 809 808 808 807 807 805 805 803 802 802 802 802 802 801 801 802 803 803 804 804 805 805 804 803 803 802 802 802 804 805 805 807 807 806 808 809 810 811 811 811 810 810 812 813 814 816 817 819 819 817 816 816 818 817 814 815 817 817 820 823 824 826 826 827 826
806 806 806 806 807 807 807 808 808 808 808 808 808 809 809 809 809 809 809 809 809 809 809 808 808 807 807 806 806 805 802 802 803 802 803 802 802 802 803 803 804 804 804 805 805 805 804 803 803 802 804 806 806 806 807 808 809 808 809 811 811 810 812 812 811 813 815 816 817 818 820 819 817 817 817 819 819 815 817 822 822 823 824 826 827 827 828 828
806 806 806 806 806 807 807 807 807 808 808 808 808 808 808 809 809 809 809 809 809 809 808 808 807 807 807 806 806 804 804 808 805 802 803 803 803 803 803 804 804 805 805 806 806 805 805 803 803 805 806 807 807 808 808 808 809 810 808 810 811 811 813 813 812 815 817 817 819 819 820 819 817 818 818 819 820 819 823 827 826 827 828 828 829 829 829 829
805 805 806 806 806 806 806 807 807 807 807 808 808 808 808 808 808 809 809 809 808 808 808 807 807 807 807 806 806 804 807 811 804 801 804 803 804 804 804 805 805 805 806 806 806 806 805 804 806 807 807 807 808 809 810 809 810 812 810 809 810 811 813 813 814 817 818 819 820 819 818 818 819 819 817 818 821 824 828 828 828 829 829 830 830 830 830 830
805 805 805 805 805 806 806 806 806 806 807 807 807 807 808 808 808 808 808 808 808 807 807 807 807 807 806 806 806 804 806 806 801 801 804 803 804 804 804 805 805 806 807 807 807 806 806 806 807 808 808 809 809 810 811 810 810 813 811 811 813 813 813 813 815 818 818 819 818 817 819 819 819 818 817 819 823 827 829 829 830 830 830 830 830 831 831 831
804 805 804 805 805 805 805 805 805 806 806 806 807 807 807 807 807 807 807 808 807 807 807 807 807 807 807 806 806 805 804 802 800 802 803 803 804 804 805 806 806 807 807 807 806 806 807 808 808 808 810 810 809 810 812 812 811 812 812 811 813 814 813 812 814 816 817 817 816 817 820 817 815 816 818 820 824 827 828 829 830 830 830 830 831 831 832 832
805 804 804 805 804 805 805 805 805 805 805 806 806 806 806 806 807 807 807 807 807 807 807 807 807 807 807 806 806 807 804 800 801 802 802 803 804 804 806 806 807 807 807 808 807 807 808 808 807 807 810 811 810 810 812 814 813 811 812 813 814 813 811 812 813 813 814 814 815 819 817 813 813 816 819 822 825 827 828 830 830 830 830 831 832 832 832 833
805 804 804 805 805 805 805 805 805 805 805 806 805 806 806 806 806 806 806 807 807 807 807 807 807 807 807 805 807 808 803 800 802 802 802 803 804 805 806 806 807 807 807 807 807 807 807 807 807 806 809 810 810 812 813 815 815 812 813 813 813 812 810 811 812 810 811 813 814 817 815 812 815 817 819 822 825 827 828 829 830 830 831 832 832 833 834 834
804 804 805 805 805 805 805 805 805 805 805 805 805 805 805 805 806 806 806 806 806 806 807 806 807 807 807 805 807 807 801 800 802 802 803 803 804 805 806 806 807 808 807 807 807 807 807 807 806 807 810 809 810 814 814 814 814 814 815 815 812 810 809 809 810 810 811 813 813 814 814 813 818 818 817 821 824 826 826 828 829 830 831 832 833 834 835 835
804 804 805 805 805 805 805 805 805 805 805 805 805 805 805 805 805 805 805 806 806 806 806 806 807 807 806 806 805 802 800 801 802 802 803 803 804 805 805 807 807 808 808 807 807 807 808 808 807 809 811 809 811 815 815 814 814 815 816 816 811 807 807 805 806 810 811 813 812 813 817 816 816 817 817 822 824 825 826 827 828 829 831 832 833 834 835 836
803 804 804 805 805 805 805 805 805 804 804 805 805 805 805 805 805 805 805 806 806 806 806 806 807 806 808 805 801 799 800 801 801 802 803 804 805 805 806 807 807 808 808 807 807 808 809 808 808 809 810 810 812 815 815 814 816 816 815 816 815 809 806 803 806 811 811 813 811 814 819 812 809 815 818 822 823 824 825 825 827 829 830 832 833 834 835 837
802 803 804 805 805 805 804 804 804 804 804 805 805 805 805 804 805 805 805 806 805 806 806 806 807 807 808 803 798 799 800 800 802 802 803 804 805 806 806 807 807 808 808 808 808 808 809 809 809 809 810 812 812 815 815 815 816 815 814 815 816 815 810 804 807 809 811 813 810 816 820 809 808 817 819 821 822 823 823 823 826 828 830 831 832 834 834 836
802 802 803 804 804 804 804 804 804 803 804 804 804 804 804 805 805 805 805 805 805 806 806 807 807 807 806 801 798 799 799 800 802 802 803 804 805 806 806 807 808 808 808 809 808 809 810 810 810 811 813 813 813 817 816 814 813 813 820 817 811 814 811 805 807 806 809 812 809 816 818 807 810 817 818 821 822 822 821 822 826 828 829 831 831 833 834 836
801 802 803 803 804 804 804 804 803 803 803 804 804 804 804 804 804 805 805 805 806 806 806 807 807 808 807 801 798 799 799 800 800 801 802 804 805 805 806 807 808 808 809 809 809 810 810 810 813 813 814 815 815 817 817 818 815 811 819 819 809 810 809 805 809 807 806 810 809 813 813 805 809 815 818 821 820 821 821 821 825 827 829 830 831 832 833 835
800 801 802 803 803 803 804 803 803 802 802 803 804 803 804 804 804 805 805 805 806 805 806 806 806 808 805 799 799 798 797 799 800 801 802 803 805 805 806 807 808 809 808 810 810 810 810 812 815 815 813 814 813 815 823 828 821 811 814 816 809 806 807 807 810 809 807 810 809 809 810 806 807 813 818 819 819 820 819 821 824 826 828 830 831 832 833 834
799 800 801 802 802 803 803 803 803 802 802 803 803 804 804 804 804 805 805 805 805 806 807 806 807 811 804 797 797 797 796 798 799 801 802 803 805 806 807 806 807 808 809 811 810 810 812 812 815 815 813 814 812 815 826 825 813 807 809 813 810 805 807 807 807 807 806 810 810 808 810 806 804 811 815 817 819 818 817 820 823 825 828 830 831 832 833 834
798 799 800 801 801 802 802 802 803 802 802 803 803 804 804 804 805 805 805 805 804 804 804 802 802 806 801 794 795 796 797 799 800 801 802 803 805 806 806 806 807 807 809 812 811 810 812 814 819 820 815 812 811 811 814 808 802 804 805 810 811 808 806 802 803 807 806 810 811 808 809 804 802 808 814 817 818 817 817 820 823 825 827 829 830 831 833 834
796 798 799 799 800 801 801 802 802 802 803 803 804 804 804 803 803 803 803 803 799 794 794 793 793 794 793 792 795 797 798 799 800 801 803 803 805 806 806 807 808 810 810 811 812 809 811 817 819 815 808 803 803 803 802 800 802 806 808 811 812 812 808 800 804 809 807 812 811 805 806 803 799 803 810 815 817 817 818 820 822 824 826 828 829 831 833 835
795 796 797 798 799 800 801 801 801 802 802 803 804 803 799 798 800 799 798 797 792 790 790 789 789 790 790 792 794 795 797 799 800 801 803 803 804 806 806 807 812 814 809 806 810 811 814 818 811 803 799 796 796 797 799 801 805 809 812 813 812 813 808 800 805 811 809 815 813 804 806 806 799 800 808 814 816 816 816 817 819 821 825 827 829 831 833 835
793 795 795 797 797 798 799 799 800 801 802 803 803 800 796 796 798 797 797 795 789 788 789 789 790 790 789 791 793 793 795 797 800 800 801 803 804 805 804 807 811 809 805 806 812 817 818 815 803 795 795 797 798 799 801 804 808 811 813 816 815 811 806 802 807 813 812 816 813 805 808 806 797 799 809 812 811 812 814 816 819 821 824 826 828 830 832 835
791 792 794 795 796 798 798 798 800 801 801 801 800 799 798 797 797 797 799 798 790 784 785 787 788 788 789 791 791 793 794 794 796 796 798 801 802 802 802 806 807 804 806 809 811 816 815 806 796 794 796 800 803 804 806 809 810 812 813 816 816 809 810 811 812 815 814 815 813 810 812 806 797 803 810 811 810 814 819 822 822 824 824 825 827 829 831 833
789 790 793 793 795 796 797 799 799 800 800 799 799 798 797 798 798 798 798 796 789 781 780 782 782 783 784 786 787 790 793 789 788 791 795 797 798 800 801 801 803 803 804 804 805 807 803 796 792 794 798 802 805 808 810 812 812 810 810 814 812 807 809 810 811 815 814 814 814 815 818 806 793 799 806 811 816 818 822 824 825 826 826 827 829 830 831 831
786 789 790 791 794 795 797 799 797 798 798 798 797 795 797 798 797 799 799 797 789 780 781 781 780 780 778 782 786 786 789 787 783 786 790 792 794 798 799 797 799 801 800 801 804 801 796 795 795 798 803 804 806 809 809 812 812 809 805 806 808 806 807 807 810 818 820 817 813 815 822 805 782 785 796 810 819 818 820 822 822 824 825 828 829 829 832 833
784 787 788 790 792 794 798 797 794 796 796 795 793 792 797 797 798 799 799 802 792 779 782 781 777 778 775 779 783 785 791 787 781 784 788 791 791 793 798 797 797 799 796 797 802 798 795 799 798 800 805 806 809 808 805 808 813 812 806 803 805 807 809 810 813 822 823 817 812 815 821 809 787 782 790 805 813 813 818 820 818 820 823 825 826 826 830 832
781 784 786 788 790 793 795 792 791 794 793 792 789 792 796 795 799 799 800 812 795 767 773 779 775 775 774 777 778 784 794 786 782 787 787 790 790 791 797 796 798 801 794 798 807 798 795 802 803 802 805 807 810 807 801 805 811 814 812 809 808 809 812 813 816 822 818 811 815 816 817 817 803 789 790 801 806 808 814 816 814 815 818 821 823 825 827 829
778 781 783 785 787 790 790 789 790 790 789 787 786 792 793 794 800 797 807 822 791 757 766 775 774 775 775 778 777 781 789 783 785 791 788 791 791 792 796 793 794 798 793 800 808 797 792 801 803 802 806 806 805 801 797 801 808 813 815 813 810 811 812 813 816 820 816 817 822 813 813 822 809 790 793 799 800 801 803 807 810 810 813 817 820 823 826 828
776 778 780 783 785 788 788 788 789 787 786 786 787 790 791 796 798 798 818 819 774 754 766 770 775 778 777 782 781 782 786 784 787 791 790 793 792 792 796 792 789 793 793 795 798 796 798 803 801 799 802 801 801 804 803 802 807 812 815 813 813 815 814 816 819 817 818 826 825 809 808 819 806 785 789 800 797 789 788 796 802 803 809 815 817 821 825 827
772 775 778 781 782 785 787 786 786 785 786 786 787 789 792 797 798 809 828 804 758 758 771 770 775 779 778 785 786 784 786 787 789 791 792 792 792 793 793 792 790 793 797 796 796 799 802 806 804 801 800 798 803 813 815 812 810 811 813 813 817 818 816 818 816 815 824 826 816 803 799 810 809 785 775 785 783 773 777 789 796 799 806 812 815 819 823 826
769 772 775 777 777 781 783 783 782 783 785 786 787 790 793 798 803 813 811 777 754 764 771 772 777 776 777 781 783 784 786 788 789 791 793 793 794 796 795 796 797 801 805 804 801 801 803 806 804 803 803 802 806 813 818 818 814 812 812 815 821 821 821 823 820 823 832 822 807 801 797 804 810 788 766 769 772 768 774 783 788 795 803 808 812 817 821 825
766 769 771 773 774 777 777 777 778 781 783 785 787 788 792 803 807 801 784 762 760 764 762 769 776 774 775 775 777 783 785 787 788 787 790 792 795 794 793 793 795 804 809 804 803 803 803 801 799 803 806 804 804 811 818 820 817 814 812 817 826 826 829 830 825 828 827 815 808 809 807 807 800 780 765 766 771 772 776 779 783 791 799 804 810 815 819 823
762 765 768 769 771 772 773 775 777 780 781 782 786 786 792 803 794 778 768 760 759 759 757 765 770 770 774 775 778 782 783 786 786 785 786 788 791 790 789 786 784 792 794 793 801 804 801 798 797 804 805 801 800 804 812 817 815 813 810 815 823 825 832 833 823 819 815 811 812 812 814 811 793 772 764 768 776 780 782 784 784 788 796 801 807 813 817 821
758 761 763 765 767 768 771 774 777 780 781 781 785 787 792 792 772 760 762 758 756 760 761 764 769 773 775 774 776 778 782 786 783 785 788 788 790 790 787 785 782 783 786 790 794 797 800 796 791 795 795 794 795 791 792 799 807 807 800 803 810 809 814 817 810 804 803 811 819 820 813 800 785 778 775 779 787 789 790 792 789 789 795 801 806 812 816 820
754 756 759 761 763 765 768 772 775 779 781 780 782 784 785 776 760 755 757 753 756 763 765 765 770 777 777 775 777 774 775 781 781 785 788 785 785 783 780 780 780 780 786 791 787 786 792 786 780 786 786 787 792 787 783 791 803 804 796 800 805 797 795 805 810 805 803 809 814 818 806 779 772 781 785 789 791 792 795 796 793 793 795 801 807 811 815 818
750 751 754 755 756 759 764 768 772 775 776 777 780 777 768 757 751 751 748 747 753 760 767 770 771 776 776 776 780 777 773 776 779 783 784 781 779 775 771 770 772 774 777 781 780 780 786 785 785 792 790 788 792 789 785 789 796 799 801 802 798 793 793 805 816 814 812 806 795 799 797 777 772 780 782 787 788 789 796 797 795 795 797 802 806 809 813 815
747 748 750 748 749 753 759 763 767 771 772 772 772 766 757 748 746 747 746 747 749 752 761 767 766 769 772 773 777 777 775 775 778 780 780 781 775 767 767 765 763 766 766 767 770 769 773 783 790 792 791 794 798 795 791 790 790 796 801 796 792 798 800 801 806 806 808 803 786 785 788 779 777 779 779 784 785 786 791 794 796 797 799 802 804 806 810 812
742 745 745 743 744 748 753 758 762 766 768 765 762 758 754 749 744 745 746 747 747 751 758 761 758 759 764 769 770 772 775 775 778 779 776 776 768 755 760 765 759 759 760 763 768 765 766 778 790 793 794 797 800 797 795 794 792 795 796 789 790 802 802 799 804 802 801 800 786 779 781 774 769 770 772 776 776 778 786 792 795 796 797 799 800 804 808 810
739 743 739 734 739 744 749 753 757 761 762 759 758 754 748 745 742 741 744 745 747 751 755 754 754 757 759 762 764 771 779 775 775 777 772 770 765 751 753 760 758 757 759 765 768 764 765 774 786 795 795 795 799 797 794 794 795 799 797 789 789 793 791 789 791 788 791 794 785 781 784 772 756 752 758 762 762 767 779 789 791 790 792 793 795 799 804 807
735 740 733 727 733 740 745 749 752 754 753 750 751 749 744 743 742 740 741 744 745 749 750 747 752 757 758 759 760 767 776 773 770 774 768 763 761 754 751 753 756 760 764 770 768 766 770 772 779 795 800 795 793 790 784 783 788 796 796 792 789 790 789 788 782 777 782 787 781 780 779 762 746 743 747 750 752 759 772 781 783 784 787 789 791 795 799 803
730 733 727 724 730 734 741 747 747 747 746 743 744 745 743 741 740 741 743 744 746 749 750 749 750 753 755 757 759 764 772 773 772 772 768 761 757 755 756 756 757 764 770 775 771 768 772 772 774 790 797 789 782 782 783 783 782 784 785 782 781 783 788 792 787 779 781 782 778 779 775 758 750 751 748 747 749 754 764 773 777 780 782 785 789 791 795 800
726 725 722 723 728 731 737 742 739 739 741 740 738 739 740 738 738 741 744 746 748 750 754 753 751 752 754 755 758 762 768 773 774 771 768 763 754 753 762 764 760 763 768 771 771 769 771 771 771 779 784 782 781 784 790 791 786 782 779 775 773 776 780 783 782 779 784 786 783 785 781 764 757 761 760 757 757 757 762 768 773 777 778 782 787 790 793 797
722 722 722 723 725 728 733 737 736 738 739 736 734 735 738 737 736 739 743 746 748 750 753 753 750 751 753 754 757 762 764 768 770 768 766 764 759 760 768 768 762 762 764 768 770 770 771 773 775 778 778 780 783 784 787 791 789 783 778 774 771 768 767 770 771 771 777 781 781 787 783 766 761 767 767 767 769 769 769 769 770 774 776 780 785 788 792 795
721 724 725 724 725 727 727 728 731 736 737 735 735 737 738 737 734 735 739 742 744 746 749 749 747 747 749 752 755 758 761 763 764 764 764 762 763 770 773 770 764 761 762 767 768 767 771 774 778 784 786 784 784 783 783 787 788 780 772 772 769 765 767 772 772 773 773 769 771 778 773 760 762 770 771 771 773 774 775 773 772 774 777 781 784 787 790 793
722 725 725 723 724 726 724 720 722 727 731 731 732 733 737 738 735 733 734 737 740 743 745 746 745 745 748 753 755 755 757 759 759 762 764 762 764 773 776 772 768 763 764 770 769 766 769 770 773 779 780 775 773 770 766 768 777 777 771 769 768 767 770 772 773 777 773 765 766 768 761 758 766 770 770 771 774 773 774 776 777 776 779 781 784 787 789 792
717 718 723 726 725 726 724 721 720 721 724 728 729 729 732 736 737 736 734 735 739 741 743 745 746 747 751 753 755 756 756 756 759 762 763 762 764 773 777 775 773 770 770 774 771 769 770 768 766 765 760 756 760 762 757 756 764 770 768 769 769 766 767 769 771 771 767 767 768 759 753 763 771 770 768 770 773 771 769 773 778 779 780 783 784 786 789 791
712 710 716 721 722 725 726 724 722 717 716 722 726 726 728 732 736 739 738 736 738 740 744 746 746 746 748 750 752 754 753 755 760 762 760 760 766 774 778 777 776 775 774 774 771 771 774 770 763 760 756 757 764 767 763 758 757 758 760 766 768 766 768 771 768 760 760 769 766 752 753 764 765 765 767 768 772 772 767 769 774 776 780 783 785 787 789 790
710 707 707 708 710 714 717 718 719 717 714 716 720 721 724 729 733 736 738 740 740 739 743 747 745 741 741 744 749 753 755 757 759 759 758 760 767 773 776 775 776 776 775 776 773 772 774 770 763 762 762 763 768 769 765 761 757 755 756 759 763 766 768 768 763 756 758 764 758 752 758 762 759 760 763 764 769 770 766 767 771 773 778 782 784 787 788 789
711 710 708 707 705 705 705 706 713 718 715 714 717 719 720 724 726 727 732 740 743 740 739 741 741 738 739 741 746 752 756 754 753 754 756 760 764 769 770 769 773 776 775 775 774 773 773 769 766 769 767 766 771 772 768 766 763 759 757 757 759 762 763 763 761 759 761 760 755 756 762 761 757 756 757 760 764 765 766 770 772 774 778 781 783 785 786 787
709 707 706 709 709 706 704 705 711 717 716 715 717 718 717 717 719 722 726 732 737 740 738 735 733 735 738 741 744 746 745 742 743 748 753 759 763 765 763 761 767 776 776 774 774 775 774 769 770 775 771 768 775 779 776 774 770 767 764 760 758 759 763 766 764 763 766 763 760 764 768 764 757 753 757 763 766 768 771 773 773 774 777 779 781 782 783 784
706 705 704 707 707 707 706 706 708 713 714 715 716 715 716 715 713 717 723 724 725 731 732 729 730 735 740 742 742 740 738 740 744 747 749 753 755 757 757 757 763 771 775 775 774 775 775 774 775 777 768 765 777 784 782 781 781 779 772 762 758 758 761 765 764 762 765 764 766 771 771 764 759 758 763 767 768 770 771 770 771 772 774 777 778 779 780 781
706 706 706 704 703 706 707 706 707 708 708 709 710 710 713 713 711 716 724 726 725 726 726 725 728 735 741 743 739 736 739 745 750 751 752 754 754 756 758 759 760 763 769 774 775 774 774 771 773 772 764 769 786 787 782 785 785 775 760 752 754 758 757 759 760 759 759 761 766 769 764 760 761 763 766 769 769 769 768 767 769 770 772 774 775 775 776 777
Wind_Speed
6 6 6 6 6 6 5 5 4 4 4 4 4 4 3 3 3 2 2 2 1 1 1 2 3 4 5 6 7 8 9 10 7 5 3 4 4 5 5 3 4 2 2 3 1 2 2 3 2 2 3 2 1 1 1 1 1 2 2 3 2 1 2 2 2 2 3 6 6 4 2 3 1 1 2 2 6 5 3 3 7 9 8 8 7 6 7 8
6 6 5 6 6 5 5 4 4 4 4 4 4 4 4 4 4 3 2 2 2 1 1 2 3 4 5 6 7 8 10 9 6 3 3 4 2 5 6 5 4 3 3 1 2 3 3 1 1 3 3 1 1 0 2 0 1 2 2 3 0 3 4 3 3 4 2 3 4 4 2 3 3 3 3 4 4 4 5 4 8 8 9 8 8 7 8 9
6 5 5 5 5 5 5 4 4 4 4 4 4 5 5 5 4 3 2 2 1 1 2 2 3 4 4 5 6 8 10 8 6 0 4 4 4 8 7 6 4 4 4 1 2 3 4 1 1 3 3 2 1 0 2 0 1 1 2 3 3 4 3 3 3 4 4 3 1 2 3 2 1 2 4 5 7 7 3 3 3 4 6 6 7 8 8 8
7 6 6 5 5 6 5 5 5 5 5 4 4 5 5 4 4 3 2 2 2 2 2 2 3 3 4 5 6 8 9 7 3 3 3 3 7 7 6 6 5 4 3 1 1 1 2 1 2 3 4 2 2 1 2 1 2 0 2 2 5 2 2 4 3 4 4 2 2 1 0 3 2 1 4 4 8 5 3 7 5 4 6 6 6 7 7 8
7 7 6 6 6 6 6 6 6 6 6 5 4 4 4 4 4 3 2 2 2 2 2 3 3 3 4 5 5 7 7 5 2 4 2 5 6 6 6 7 5 5 3 1 0 0 2 2 2 3 4 2 2 2 1 3 2 2 0 3 4 1 0 5 4 4 3 1 1 2 3 1 1 3 4 5 7 1 5 5 5 5 5 5 5 5 6 7
7 7 7 6 6 6 6 7 7 7 7 6 5 4 4 3 4 3 2 3 2 2 3 3 3 3 3 3 4 5 6 3 4 4 4 5 5 6 7 6 5 5 3 1 0 2 2 2 4 3 3 2 2 1 2 3 2 3 2 3 2 1 1 3 4 4 2 2 3 3 1 1 4 6 4 4 3 4 4 4 4 4 4 3 4 4 6 6
7 7 7 7 6 6 6 7 8 8 7 7 6 5 5 3 4 4 3 3 3 2 3 3 2 3 2 2 3 3 5 2 5 7 6 5 5 5 6 6 5 5 2 3 1 3 2 3 4 2 3 3 2 1 2 2 3 4 1 3 2 0 2 0 3 4 4 5 4 1 1 5 8 4 3 3 2 5 4 4 4 3 3 3 4 5 6 6
8 7 7 7 6 6 7 7 8 8 7 7 6 6 5 4 4 4 3 3 3 3 3 2 1 2 1 1 4 4 5 0 5 7 7 5 4 5 5 5 4 3 2 3 2 3 2 4 3 1 4 1 1 1 2 2 5 6 3 3 2 1 3 2 2 4 6 6 4 3 6 8 6 2 3 4 4 4 4 4 3 3 3 4 5 6 6 6
9 8 7 7 6 6 6 6 6 7 6 6 6 5 5 4 4 4 4 3 2 3 2 2 1 1 1 2 4 5 2 3 5 5 6 5 5 6 5 4 3 2 3 3 2 4 3 3 2 1 4 2 1 1 2 4 3 2 2 1 2 3 4 4 5 6 5 5 4 5 9 6 4 3 4 4 5 4 4 3 2 2 3 4 5 6 6 7
11 9 7 5 6 6 5 5 6 7 5 5 5 5 6 5 4 4 4 3 2 2 2 2 1 1 2 3 5 5 0 5 4 3 4 5 5 5 5 4 4 4 4 2 3 5 3 2 1 0 4 1 2 1 2 3 2 2 2 3 6 7 5 5 6 6 4 5 5 7 10 3 6 5 4 5 6 5 4 4 2 2 3 4 4 5 6 7
12 11 7 6 7 7 5 5 6 7 6 5 5 6 6 5 5 5 4 3 2 2 2 1 1 1 2 4 7 4 2 5 4 4 4 5 6 5 5 5 4 4 4 3 4 3 2 1 1 1 1 1 3 2 2 1 2 2 3 6 8 8 7 8 9 6 4 4 5 7 7 3 6 5 3 7 8 6 5 5 3 2 3 4 4 4 4 5
11 10 9 8 10 10 8 6 6 7 7 5 5 6 6 6 5 5 4 3 2 2 2 1 2 2 3 6 6 3 4 5 5 5 4 5 5 5 5 5 5 4 4 5 4 2 2 1 4 4 1 0 2 2 2 1 1 2 3 7 7 8 10 10 7 3 4 3 3 5 5 6 9 6 6 9 7 6 5 5 4 3 3 3 3 3 3 4
10 9 9 10 12 12 10 7 6 7 6 5 5 5 6 6 5 4 3 3 2 2 1 1 2 1 3 5 2 3 5 5 5 5 5 5 4 3 4 4 5 5 5 5 1 5 4 2 4 4 1 3 3 2 2 3 2 3 4 5 6 9 7 6 6 4 4 3 5 5 4 5 9 8 8 8 7 7 7 5 5 3 3 3 3 3 4 5
12 11 10 11 14 13 10 7 6 7 6 5 5 5 6 5 4 3 2 2 1 1 1 1 2 2 3 3 2 3 6 7 6 6 7 6 4 2 2 3 4 5 5 2 3 6 4 2 2 1 2 3 0 3 3 4 3 4 4 4 5 7 2 7 7 6 5 4 6 6 5 3 8 8 7 7 7 8 7 6 5 4 3 2 3 2 3 4
14 12 10 12 13 11 9 9 8 7 6 5 5 6 4 3 3 2 2 2 1 1 1 2 3 2 5 4 1 2 6 7 6 8 8 6 4 3 3 4 3 3 3 3 6 6 4 3 3 2 2 1 2 4 5 4 5 5 4 5 5 4 2 7 7 5 3 3 7 7 5 2 8 9 7 6 7 8 7 6 5 4 4 3 3 3 3 4
13 12 11 12 13 10 10 11 10 8 6 5 5 4 2 2 1 2 3 2 3 3 3 1 3 2 6 3 2 1 4 6 7 9 10 9 6 4 7 7 6 5 4 5 6 6 4 3 1 2 1 2 5 5 5 5 5 5 5 6 5 5 5 4 6 4 2 3 7 9 6 2 7 9 7 6 8 9 7 5 6 5 4 3 3 3 2 3
13 12 12 13 13 12 10 11 13 9 5 3 2 2 1 1 2 3 3 4 4 3 2 1 2 3 4 1 2 3 3 5 7 7 9 10 8 7 9 7 6 7 7 7 6 5 4 3 1 1 4 5 5 5 5 6 5 5 6 6 7 8 7 4 4 5 4 4 6 8 8 6 5 11 8 7 7 8 7 6 6 5 4 3 3 3 2 2
15 14 13 13 14 12 11 11 13 7 5 4 1 1 2 4 3 3 4 5 5 4 1 1 2 4 4 4 3 1 5 5 6 6 8 10 9 8 7 5 6 9 8 6 4 6 4 3 3 4 5 6 6 6 6 7 7 7 5 5 7 7 8 8 3 6 7 6 6 8 9 9 6 11 8 8 8 7 7 6 5 5 5 4 3 3 3 2
17 16 15 15 14 13 11 12 10 4 6 3 4 5 5 4 3 3 4 5 4 3 2 4 8 4 0 5 4 5 6 7 6 5 7 9 8 7 5 5 7 8 6 5 6 7 5 4 4 5 7 8 9 10 10 11 9 9 6 5 7 6 7 6 1 5 4 5 8 9 10 11 8 9 9 8 7 7 6 5 5 5 5 4 4 4 3 3
18 17 15 15 14 12 11 12 9 7 6 3 4 4 2 2 3 3 5 6 9 9 4 3 11 7 0 5 6 7 7 6 4 4 7 9 9 8 6 5 6 6 6 6 6 5 4 6 7 8 10 10 12 14 14 11 7 7 7 7 9 8 8 5 3 6 2 4 8 10 11 13 12 8 10 8 7 7 7 7 7 6 5 5 4 4 4 3
19 17 15 14 14 12 12 13 9 10 7 5 5 5 2 2 4 1 2 7 13 15 12 7 8 8 2 5 9 9 5 3 2 4 9 10 10 9 7 7 6 6 8 8 4 3 3 8 10 12 13 9 8 12 14 10 6 8 8 8 8 8 10 7 2 5 3 3 8 11 11 13 14 8 10 9 8 9 9 9 8 7 6 4 5 5 4 3
20 19 16 16 17 14 13 13 10 12 8 6 7 7 3 3 0 3 2 5 10 15 15 11 8 8 3 5 9 8 3 5 6 7 11 12 10 9 7 9 9 7 8 7 4 3 6 10 13 13 9 3 2 5 9 9 9 9 7 7 8 7 8 5 4 5 3 3 6 9 9 11 11 6 10 9 9 7 6 5 5 6 6 5 5 5 5 4
21 18 17 19 19 15 13 11 13 11 9 8 9 7 3 2 4 5 1 5 7 11 13 13 12 11 10 6 9 10 7 9 9 10 16 14 10 9 8 10 11 9 9 10 8 7 7 8 12 11 5 5 5 4 6 7 7 8 7 7 7 6 7 5 3 4 4 4 4 5 6 10 8 6 8 7 6 5 3 2 2 3 4 5 5 4 5 5
21 20 21 22 19 16 13 10 14 10 11 10 11 10 2 2 5 2 2 5 7 7 9 11 11 12 12 6 10 14 10 10 10 10 18 16 9 7 9 10 11 11 9 13 14 13 11 3 3 8 7 8 9 7 8 7 7 9 10 9 8 8 9 7 2 3 4 6 5 5 7 9 10 11 8 6 5 5 5 5 5 5 4 3 4 4 4 4
22 22 23 22 19 15 10 12 12 12 11 10 13 15 7 3 4 1 2 5 7 4 3 5 5 8 9 8 12 12 8 11 10 8 18 17 10 7 7 7 9 11 12 15 14 14 12 1 3 8 7 9 10 8 9 8 7 9 10 12 12 12 11 10 4 1 5 6 6 6 6 5 7 12 10 7 6 7 7 7 8 7 7 5 5 6 5 4
24 23 21 22 17 13 12 9 12 13 11 11 13 13 11 7 5 3 1 4 8 3 4 5 6 7 9 10 13 8 3 9 4 8 16 14 8 4 5 6 5 9 10 11 9 7 4 3 4 8 7 8 9 8 9 9 8 7 4 6 11 12 12 11 7 3 5 4 3 4 7 4 2 7 8 7 8 9 8 8 9 8 8 8 7 6 7 6
26 24 23 23 19 17 14 5 11 15 8 10 12 13 15 12 7 3 2 5 8 4 6 3 3 6 7 9 13 9 2 3 6 7 9 8 6 2 5 8 5 5 4 4 5 3 5 7 5 7 8 8 9 8 9 10 8 4 2 1 5 8 10 10 8 6 5 4 1 5 6 6 5 4 7 8 8 9 9 10 10 10 9 9 8 7 8 7
26 23 24 25 23 23 14 5 14 17 7 6 11 17 18 15 9 3 2 5 4 4 5 1 2 3 4 5 9 7 1 3 6 3 3 2 5 3 8 12 8 9 8 7 7 2 5 9 9 10 10 8 8 7 7 12 9 2 4 3 1 2 5 6 6 6 5 4 4 7 6 5 7 4 6 6 7 9 11 13 12 12 11 11 10 9 9 8
27 24 26 27 25 24 14 7 13 15 11 8 12 19 19 14 8 1 1 4 2 4 2 2 4 3 6 6 6 4 2 1 1 1 4 2 3 1 5 10 9 10 11 12 11 1 2 3 5 9 10 8 5 1 2 7 6 2 6 5 4 2 1 3 5 5 4 5 7 8 9 6 7 5 6 5 5 9 10 11 12 13 12 11 10 10 10 9
29 26 29 29 26 25 18 12 14 14 13 11 13 20 18 9 4 2 4 5 2 2 3 3 5 6 10 10 7 6 4 1 3 4 6 5 5 3 2 3 6 7 7 10 10 2 3 2 1 4 4 2 4 7 5 1 3 7 7 5 4 3 2 3 4 3 5 8 9 11 13 9 7 5 7 5 3 6 7 9 11 12 13 12 11 11 10 9
31 28 31 33 30 29 22 14 18 17 13 13 17 20 13 3 1 5 7 2 2 2 5 5 6 9 14 13 7 9 7 3 6 9 7 5 7 7 4 3 4 5 5 7 8 4 4 3 2 1 0 2 6 5 4 3 3 5 5 4 3 3 3 4 4 4 7 9 6 7 10 11 9 5 5 5 5 4 5 9 13 15 14 13 11 11 11 9
32 30 33 36 33 32 24 15 21 21 14 19 21 14 6 2 3 8 6 3 0 5 7 7 8 10 15 12 6 8 9 5 8 9 8 7 8 9 10 8 7 6 6 7 7 5 5 7 6 3 0 4 6 4 3 2 2 5 5 6 5 4 3 5 6 6 8 6 2 3 4 7 9 8 6 5 7 6 4 4 12 16 14 14 13 11 11 9
34 32 35 38 35 35 29 20 21 21 20 24 17 6 4 5 8 10 9 5 2 2 5 7 10 11 12 10 5 8 8 5 9 9 7 9 8 9 12 12 11 8 5 6 7 4 4 6 9 6 2 7 11 8 5 4 6 9 9 8 7 6 5 7 7 7 8 3 2 3 4 4 6 7 9 5 7 6 6 5 6 14 15 14 14 12 11 10
36 36 38 40 39 37 33 24 19 21 23 20 10 5 7 8 9 9 11 8 2 4 4 6 10 10 10 8 5 9 7 5 10 9 6 9 8 8 11 13 16 11 4 4 7 6 6 5 9 11 6 10 14 11 7 7 8 10 9 8 8 7 6 7 6 7 6 2 2 3 3 5 4 2 1 4 7 6 6 5 4 10 13 12 12 12 11 11
39 41 41 40 40 38 35 28 22 25 23 13 6 7 9 9 8 6 8 7 4 4 5 7 10 8 8 6 4 9 7 4 11 10 7 10 9 9 11 11 15 12 7 7 5 6 9 6 6 7 4 13 16 10 7 8 7 8 7 8 9 6 5 4 1 2 2 0 2 5 4 4 3 2 3 4 5 6 6 5 6 9 12 12 11 11 11 10
40 42 40 39 41 41 38 31 28 31 22 9 6 8 9 9 5 4 5 5 6 8 9 7 7 7 8 6 4 9 5 1 10 10 7 10 10 11 11 9 15 16 12 9 4 5 7 3 4 4 1 9 8 4 6 5 3 5 7 8 5 1 2 3 1 1 1 5 4 6 5 4 2 2 4 5 5 6 7 6 8 10 12 12 10 10 11 11
35 33 29 32 38 43 41 35 35 33 18 7 9 8 7 7 3 4 4 3 6 11 11 6 7 7 8 6 5 11 8 4 9 9 6 8 8 12 14 10 14 19 17 12 6 5 6 2 3 4 3 3 2 2 3 2 1 5 6 6 4 2 3 3 4 2 3 7 4 6 8 7 5 4 4 6 6 7 7 7 9 9 11 11 10 11 11 11
30 21 16 27 39 42 43 42 39 27 10 6 13 11 6 6 5 6 5 4 6 10 8 7 7 7 7 6 6 9 8 6 9 8 6 7 5 10 16 10 11 19 20 14 7 4 6 4 2 3 3 4 2 1 4 3 2 1 2 2 3 3 6 6 5 5 5 7 5 5 8 8 8 6 6 9 9 10 10 9 10 11 12 11 11 12 13 12
21 9 7 24 40 41 45 46 34 17 7 9 13 10 6 6 6 8 7 6 6 8 9 8 5 4 5 6 4 5 6 6 9 8 6 7 4 8 15 10 10 16 18 15 7 3 6 6 3 1 2 5 4 5 8 7 5 1 3 3 2 2 5 6 6 4 5 6 6 4 5 6 8 8 12 14 12 11 12 10 10 12 13 12 12 13 13 13
12 4 3 17 36 43 46 40 21 9 9 11 10 7 5 5 6 7 8 7 4 4 7 7 7 5 4 4 2 4 6 7 8 6 6 7 5 6 11 9 8 9 11 13 10 4 4 5 4 2 3 5 5 7 10 9 8 7 6 7 6 3 1 3 5 4 4 5 6 6 5 3 2 5 12 16 14 12 12 11 11 12 12 13 13 13 13 13
7 5 2 14 34 44 39 23 10 8 8 8 9 8 6 5 6 9 8 5 1 1 0 3 6 4 4 4 2 3 5 4 6 5 4 6 7 4 3 2 3 7 8 10 10 6 4 5 5 3 4 7 4 2 4 4 6 8 9 9 9 7 4 4 6 5 2 4 4 5 7 2 2 2 3 8 9 10 11 11 10 11 13 13 12 13 13 13
4 5 4 17 36 41 26 9 7 8 7 8 7 6 6 5 6 9 7 3 1 1 1 2 4 3 3 4 2 4 5 4 5 6 4 6 8 4 2 3 3 10 9 5 5 3 0 2 6 4 3 5 1 3 1 1 2 5 7 8 8 8 9 9 7 4 4 2 0 2 6 2 3 3 4 4 3 4 6 8 9 9 12 12 11 13 13 13
2 2 4 16 31 31 16 6 8 7 6 7 5 4 5 5 7 10 8 6 5 3 2 3 5 6 5 4 3 4 6 4 6 8 6 5 4 1 1 1 5 11 9 2 1 2 1 1 5 3 0 1 2 2 2 1 1 6 7 6 8 10 10 7 3 1 4 5 3 3 7 3 2 3 4 4 4 3 1 4 7 7 8 10 11 12 12 12
1 1 2 8 18 19 11 7 10 10 8 8 7 6 3 2 8 12 11 11 7 5 6 6 6 7 6 4 4 6 7 5 6 8 6 6 3 2 2 1 4 8 7 2 2 5 4 3 4 3 2 3 4 4 5 4 4 7 7 7 10 10 5 2 0 0 5 8 8 7 8 3 3 2 2 2 1 1 2 2 4 6 7 8 9 9 10 11
3 1 0 3 5 8 7 4 7 10 11 12 13 12 7 2 4 7 10 12 7 5 6 4 4 5 3 4 3 5 8 6 5 5 5 4 2 2 2 1 3 3 2 2 1 3 4 5 5 7 8 9 8 6 5 5 6 5 6 8 11 11 8 4 3 5 9 7 8 9 8 3 4 1 1 1 2 3 4 3 2 3 5 7 8 8 9 10
3 2 2 2 1 2 2 1 3 7 10 11 10 10 11 7 1 1 5 9 8 6 4 1 2 4 3 5 6 7 10 9 4 3 5 4 2 1 1 2 2 0 2 2 1 1 1 3 7 12 12 8 4 3 2 3 8 8 9 10 11 13 11 6 5 8 7 3 6 12 8 3 4 5 5 4 4 4 4 4 4 3 5 6 6 7 8 9
2 3 4 4 2 3 2 2 4 6 10 12 7 6 12 11 4 1 3 4 6 7 2 2 3 7 7 9 10 9 10 10 6 4 6 5 2 1 1 1 2 1 2 1 1 2 1 5 11 15 14 6 1 2 4 0 7 12 13 13 11 11 12 11 12 11 5 4 8 8 6 6 8 8 8 6 5 5 5 5 5 5 6 6 6 7 9 9
2 1 2 1 2 5 6 6 8 7 8 12 8 6 12 13 8 6 4 2 4 7 4 1 6 11 11 10 9 6 6 7 7 7 7 4 3 2 1 1 1 1 2 2 1 2 3 8 10 12 13 6 2 2 4 3 3 5 11 15 12 11 15 17 18 14 7 7 10 3 7 9 9 6 8 8 7 8 7 5 4 5 7 8 8 8 9 10
1 0 1 1 1 4 8 9 10 9 9 11 8 7 12 16 14 10 6 4 3 6 8 8 10 13 12 10 8 6 7 8 7 8 7 4 3 4 2 2 2 1 2 3 1 2 3 7 6 5 10 8 1 2 2 2 3 2 6 11 11 13 15 16 17 13 7 10 12 3 3 8 7 5 6 5 5 5 3 4 4 7 8 9 9 9 9 10
1 1 1 0 1 1 4 6 8 8 8 7 6 6 9 14 16 11 7 8 7 6 9 13 13 11 12 11 10 10 13 11 7 6 8 7 4 5 5 4 3 2 2 3 2 1 3 5 4 3 6 7 3 1 0 1 1 2 5 8 11 13 12 11 13 10 7 12 12 6 8 9 5 3 3 4 3 3 4 5 6 7 8 9 8 8 9 9
1 2 0 2 2 2 4 5 8 9 7 5 6 6 7 11 14 11 6 6 7 8 12 18 14 8 7 11 13 15 13 8 5 4 8 8 6 4 5 4 5 6 6 4 3 3 4 3 3 4 7 6 3 4 4 3 3 3 9 14 14 12 10 9 10 8 10 12 9 7 9 9 2 5 4 3 4 4 5 7 7 6 7 8 8 8 8 8
0 2 2 2 2 4 4 4 7 8 6 7 8 8 8 9 10 10 5 1 2 4 8 13 12 7 6 11 16 13 6 7 5 4 5 4 3 3 2 3 5 5 7 6 3 3 5 4 3 5 6 3 0 4 6 5 2 4 10 11 11 10 10 10 9 10 11 10 7 8 10 6 3 5 5 5 6 7 7 7 6 6 6 7 7 7 7 6
Wind_Direction
209 208 209 204 197 199 203 202 205 201 195 191 183 188 192 186 191 190 188 217 205 212 268 317 326 331 338 335 341 340 333 332 318 302 303 305 291 221 197 172 158 147 121 113 179 229 213 204 175 235 242 209 285 38 133 11 321 262 252 245 252 163 103 78 112 98 112 122 122 112 43 305 274 117 103 201 215 225 254 144 97 74 74 76 67 33 16 15
216 213 215 207 200 201 203 206 207 207 201 193 189 187 200 203 198 199 193 209 217 230 285 328 326 333 338 335 344 335 331 328 288 279 13 338 293 174 169 163 155 130 117 120 248 255 267 236 183 252 264 234 133 84 206 130 280 274 290 251 355 56 72 53 61 79 88 110 110 105 60 328 322 8 7 296 239 242 265 163 132 112 102 88 64 43 28 26
218 217 221 205 194 202 208 209 205 207 204 200 199 191 201 210 205 203 201 224 236 263 300 318 324 334 334 342 342 333 334 312 263 54 41 31 102 131 140 144 142 126 112 16 288 284 302 318 257 265 275 262 100 224 226 70 294 285 289 265 74 69 91 87 81 81 67 72 102 109 74 305 316 0 327 312 298 279 287 79 132 131 92 63 49 36 25 28
216 216 221 206 195 202 208 209 205 201 201 208 211 202 204 206 211 209 210 243 251 275 303 317 330 337 338 348 339 339 334 291 250 86 69 86 110 125 124 119 121 112 92 358 299 275 281 248 245 273 277 251 120 235 232 69 337 312 296 336 77 78 133 115 104 94 80 41 322 76 204 251 154 339 296 293 289 267 83 44 14 22 33 34 39 29 22 26
212 213 220 215 206 206 206 207 206 201 201 209 215 215 211 202 212 212 222 259 270 298 316 322 332 336 339 347 342 349 329 286 114 104 138 118 115 123 120 113 108 90 85 165 113 169 228 227 235 256 262 242 161 216 165 81 338 264 278 42 78 339 51 113 110 99 93 6 289 240 244 241 136 252 253 253 277 314 70 35 24 29 31 34 31 25 26 27
214 215 221 219 219 218 212 210 209 207 206 207 211 219 219 212 216 217 237 265 275 301 311 316 332 335 335 343 342 340 307 290 124 163 163 137 134 125 128 121 103 94 111 197 185 223 233 233 235 241 259 256 223 233 97 99 305 274 143 98 85 347 9 104 119 128 140 226 235 240 271 12 264 251 216 237 288 60 62 44 57 54 57 52 43 39 37 36
217 218 222 220 222 225 220 217 211 209 209 208 208 213 218 220 226 228 244 261 272 288 293 304 323 323 333 336 319 290 270 282 146 178 171 163 164 145 147 135 118 112 154 236 230 242 250 245 247 264 268 259 238 157 93 153 231 269 238 128 111 21 274 46 127 159 190 228 237 247 300 261 252 244 185 202 83 81 80 71 70 72 81 77 69 56 47 46
220 221 222 221 221 226 226 222 215 210 211 212 210 212 221 227 236 242 249 262 272 269 273 286 305 324 358 333 306 272 257 224 141 181 187 187 181 176 170 145 137 126 201 253 276 281 264 250 262 271 262 281 291 170 121 238 219 240 279 112 140 225 239 237 190 213 219 233 235 221 250 248 236 218 191 176 108 101 104 89 92 99 93 82 67 54 51 47
232 227 223 228 227 227 227 226 223 215 214 222 218 219 232 239 247 250 255 262 264 269 269 273 289 299 282 291 291 281 267 112 131 181 189 195 197 191 178 166 181 173 224 247 260 262 250 260 266 268 296 9 268 245 150 252 235 223 328 70 233 247 237 241 247 246 232 230 206 219 251 239 175 185 188 150 123 124 126 121 122 121 91 73 60 49 44 39
233 233 232 249 257 251 243 241 239 225 223 233 228 232 241 247 255 251 253 251 244 262 258 262 282 283 293 273 258 271 88 117 143 177 179 189 186 180 182 188 202 224 240 227 226 239 243 294 36 5 309 314 219 225 168 251 335 24 329 292 270 265 257 242 245 251 243 235 210 231 261 212 145 202 205 139 143 145 148 147 138 134 87 68 61 52 41 38
226 229 239 266 276 277 267 254 254 238 233 243 241 241 245 247 251 248 245 235 228 237 237 251 242 254 295 264 256 267 119 130 155 166 174 179 166 172 200 202 201 239 258 234 223 237 271 296 125 192 289 175 176 178 197 279 3 342 315 290 263 253 250 236 237 243 233 232 210 231 257 173 152 212 181 134 150 163 167 153 144 149 106 88 80 70 54 47
221 218 234 256 264 272 272 265 267 248 239 249 249 247 250 247 243 244 239 228 224 220 226 217 202 227 273 259 257 246 154 153 169 174 181 177 171 180 200 209 207 229 263 259 224 200 266 198 197 226 2 290 209 178 179 136 310 285 283 283 274 259 249 231 216 203 213 196 168 211 241 205 192 184 127 133 154 167 178 167 155 150 120 113 99 92 79 59
215 207 224 236 241 256 268 268 270 258 243 246 254 254 250 244 242 244 236 229 221 208 212 204 198 199 269 266 228 183 190 188 186 183 180 167 162 182 201 219 217 215 243 277 212 173 204 192 228 245 39 284 264 95 134 162 225 268 246 265 290 276 245 187 157 161 197 156 156 207 260 209 181 150 127 142 162 172 185 180 170 158 134 127 105 98 85 66
214 207 215 226 235 254 269 266 267 263 248 246 261 266 258 247 245 244 233 227 209 201 188 179 191 185 254 264 137 192 212 203 191 179 178 162 137 155 190 208 214 212 217 235 172 167 175 156 235 214 89 307 12 119 209 197 214 259 255 243 258 273 208 140 151 176 188 150 167 213 277 219 152 138 138 152 171 184 193 178 169 167 148 138 121 115 94 79
219 208 212 232 242 256 271 273 276 263 245 249 257 265 265 246 244 235 219 210 164 158 125 143 178 207 265 248 168 224 213 199 193 188 189 173 167 177 152 148 148 167 168 160 161 148 141 159 205 199 117 52 154 193 242 230 225 233 256 255 228 244 184 148 157 190 203 153 179 209 268 204 148 147 138 150 183 193 203 180 167 169 156 155 144 130 116 104
223 211 216 240 241 246 267 278 284 267 238 242 254 266 267 239 223 187 187 158 141 134 103 130 183 245 285 255 148 212 206 200 196 202 207 191 194 183 140 133 120 121 122 125 140 134 140 181 232 294 144 179 210 226 251 249 242 218 230 261 246 241 238 172 152 189 206 152 183 209 260 292 141 148 138 146 181 192 205 189 171 173 161 161 154 141 138 129
222 217 223 240 236 243 267 278 287 277 221 197 264 296 296 122 138 155 149 142 143 128 115 84 146 229 265 203 195 227 178 180 184 194 206 193 186 164 144 141 132 125 118 117 137 151 167 184 169 260 219 224 231 224 240 244 244 224 212 244 259 254 256 240 152 154 174 194 214 214 245 275 146 146 153 158 174 192 203 195 179 176 171 166 155 153 157 143
222 221 227 234 234 244 259 271 285 271 176 160 204 192 107 105 124 136 137 140 123 105 147 170 167 237 238 182 196 148 107 134 162 170 185 179 169 164 161 159 149 144 141 142 174 182 188 194 191 236 229 222 221 210 219 233 253 263 237 241 261 249 244 254 219 153 172 202 239 229 238 257 184 152 160 164 175 200 201 189 182 176 173 170 167 169 159 153
221 224 228 227 228 241 249 264 274 214 162 163 148 122 99 93 116 156 170 164 156 178 220 174 186 228 296 153 131 78 96 122 141 153 165 163 157 166 175 164 163 172 179 178 188 188 193 191 189 232 232 216 212 209 222 240 268 289 286 281 277 263 252 259 136 134 177 219 242 247 250 258 231 171 165 167 177 201 198 181 183 180 177 173 176 175 165 161
220 225 229 225 229 238 243 256 247 181 166 170 151 140 138 179 210 197 187 203 219 232 271 184 195 229 300 134 126 109 113 124 138 148 155 157 157 167 174 169 175 202 218 202 184 175 195 211 208 221 228 227 220 216 230 250 279 294 286 278 268 264 266 267 120 126 162 250 249 257 258 261 259 209 167 168 178 194 199 193 194 186 178 181 178 172 168 154
218 223 224 224 231 231 243 255 222 175 178 177 188 211 223 233 236 229 178 218 225 233 254 239 214 246 248 123 145 149 134 151 175 160 162 163 165 174 176 177 187 207 218 209 171 124 197 223 224 226 233 246 239 222 231 247 261 266 266 267 259 253 262 264 138 129 153 247 260 266 261 259 263 230 160 164 185 198 202 200 201 190 177 178 177 175 167 142
220 222 218 224 225 220 248 256 201 177 187 183 209 232 311 345 348 48 20 256 234 222 238 244 237 249 215 137 161 172 202 208 184 170 172 172 181 193 178 178 205 211 193 184 166 178 217 229 232 234 232 223 233 222 230 242 249 254 253 255 255 253 263 251 139 136 184 234 266 266 259 262 261 206 158 176 192 192 194 197 199 187 183 184 180 178 171 156
220 216 219 228 220 221 253 237 181 176 196 198 215 227 299 3 103 67 322 281 269 217 216 224 226 229 214 190 175 182 212 216 210 186 173 176 190 205 193 185 214 217 184 186 203 220 226 234 233 225 198 182 207 209 219 240 244 241 238 243 250 248 256 249 156 146 196 230 288 292 272 270 257 174 161 188 186 166 160 178 198 191 196 190 177 174 171 168
222 221 228 225 214 230 245 195 171 189 206 212 227 225 235 131 129 72 264 274 273 217 201 213 221 225 214 186 167 187 213 224 228 185 168 180 183 191 210 204 216 222 204 203 213 229 238 263 214 197 188 213 225 208 207 231 239 232 231 235 251 250 248 255 209 137 217 230 242 267 276 268 242 208 187 171 173 183 178 187 201 202 206 186 166 177 173 163
223 229 229 212 211 231 206 168 185 204 200 214 237 225 208 161 144 160 276 269 257 218 180 208 212 217 199 154 158 180 217 227 230 176 168 186 181 166 205 209 221 228 217 211 218 238 242 219 133 182 190 213 223 218 205 217 245 242 228 225 244 258 259 262 257 199 267 248 195 218 262 274 232 210 190 154 176 197 184 194 204 196 195 194 189 185 173 159
220 227 222 207 216 212 169 177 207 196 193 219 235 214 192 172 143 160 239 276 257 207 132 183 182 182 171 156 159 150 230 231 219 142 162 187 192 170 206 194 213 241 225 212 224 251 228 137 151 177 182 201 214 228 207 203 240 254 235 218 237 256 261 258 250 223 265 275 152 198 253 274 226 195 173 157 184 189 180 198 202 192 190 193 194 181 171 169
219 223 219 213 215 190 169 195 188 173 190 225 220 196 185 180 166 180 234 272 260 170 135 188 189 171 157 157 162 148 210 184 99 126 159 183 188 169 229 197 178 234 217 187 228 231 153 160 169 173 192 208 214 233 212 197 228 249 44 54 225 243 249 243 236 229 256 295 176 190 234 267 260 193 152 159 184 187 191 202 197 194 194 188 187 179 170 166
222 221 215 212 209 191 178 171 170 175 201 202 188 184 180 180 184 202 232 253 263 124 129 158 82 108 118 149 174 160 103 118 129 155 107 161 193 165 224 215 208 212 186 183 222 208 151 179 185 187 205 217 218 235 200 190 220 240 76 66 131 229 243 226 226 234 251 278 242 196 188 243 255 197 143 164 200 212 206 199 195 195 192 183 180 175 166 158
224 220 212 208 206 200 196 189 182 196 211 181 169 177 172 174 186 179 242 231 210 116 110 128 123 109 123 153 192 162 90 92 164 120 104 160 230 222 231 231 237 222 194 206 229 284 88 187 202 205 216 220 199 56 129 193 216 151 110 95 88 96 182 199 224 237 233 245 246 211 185 216 258 218 172 174 219 231 209 188 191 190 181 178 175 168 161 157
222 219 211 202 196 198 205 218 212 209 210 194 169 166 162 164 178 175 203 222 225 130 98 129 151 145 148 158 189 193 184 123 90 131 155 172 198 223 280 268 250 231 198 219 242 253 99 82 322 227 229 210 116 69 37 29 133 135 136 119 117 141 151 191 228 233 243 244 238 221 203 213 260 238 201 192 205 222 186 166 180 178 172 173 171 165 161 159
220 217 209 199 193 195 199 216 215 206 204 188 161 155 159 153 173 206 205 229 320 157 136 151 148 147 164 169 178 191 194 165 137 155 164 160 180 198 201 185 208 219 213 229 239 214 166 170 171 156 97 107 112 96 56 52 115 153 165 164 173 187 173 214 226 206 246 250 227 215 207 212 236 238 201 166 142 162 160 166 174 170 170 170 166 164 162 162
220 217 210 202 198 198 199 208 206 197 182 168 156 153 167 168 210 223 202 100 145 184 151 154 161 167 180 183 176 174 178 177 168 175 179 173 183 193 197 195 175 186 227 223 210 206 208 206 178 124 125 189 169 144 103 93 180 192 189 184 199 210 196 225 225 209 238 245 153 141 177 216 238 239 220 161 136 146 126 149 170 165 166 166 163 163 160 162
219 216 212 205 200 200 203 207 204 191 171 162 161 168 177 186 217 217 198 177 182 154 119 141 168 176 182 188 182 163 170 180 174 182 192 186 196 204 208 213 198 205 244 202 191 198 206 204 181 163 187 200 192 183 169 172 186 192 190 185 197 206 215 231 226 224 236 227 123 139 166 234 247 235 226 172 118 115 86 70 154 162 162 162 160 160 158 162
218 213 211 206 203 204 205 206 201 185 171 163 167 180 177 206 223 200 198 208 163 90 102 133 153 165 183 194 171 159 172 188 173 177 188 188 206 211 208 216 213 221 256 202 200 200 214 232 182 178 173 175 192 211 203 168 173 194 196 195 206 210 225 237 229 231 229 150 122 158 172 216 208 188 206 117 97 98 95 75 113 149 155 153 153 156 157 163
218 211 209 204 202 204 202 202 196 180 172 169 174 178 186 217 222 193 196 195 148 112 111 130 144 162 195 202 174 179 196 203 178 181 195 196 208 209 202 208 207 208 214 214 214 194 224 254 162 160 146 164 185 216 201 162 171 194 196 209 220 227 244 258 265 240 235 117 177 186 222 242 185 100 79 109 119 120 116 116 130 145 149 149 155 161 163 168
214 208 206 200 200 201 197 195 188 178 172 172 189 192 203 217 206 175 182 166 154 143 130 143 162 177 199 194 188 196 206 204 178 184 209 209 219 219 208 203 197 198 201 202 200 186 218 258 122 118 114 171 185 209 189 184 174 172 192 208 204 6 310 263 212 126 257 269 222 171 221 258 186 176 141 134 149 143 136 142 149 152 153 156 164 167 170 173
210 206 205 200 201 199 195 191 182 178 176 182 201 207 217 222 186 149 155 126 139 145 145 179 187 181 195 195 199 195 188 179 180 187 198 196 221 222 211 209 196 198 203 206 220 212 215 248 152 164 178 165 2 341 220 275 63 155 193 193 125 36 319 272 248 222 215 251 239 172 208 215 196 202 147 145 175 172 164 158 156 162 166 172 177 175 175 175
206 204 209 209 204 197 194 189 180 178 186 199 206 211 212 213 180 158 152 131 141 151 171 215 193 178 192 191 193 183 174 173 176 187 195 186 216 204 194 203 202 200 204 210 232 214 201 232 190 162 166 125 76 243 215 238 231 218 264 181 141 221 226 205 232 244 217 235 250 203 208 214 212 199 159 174 192 186 175 165 168 178 181 186 184 178 177 173
200 193 227 216 205 197 192 186 177 177 202 203 209 213 205 206 184 164 159 154 154 165 193 213 189 182 198 186 169 151 165 182 172 181 204 194 204 188 181 189 206 204 199 200 218 192 183 221 220 124 105 127 146 209 203 194 199 275 298 220 193 245 232 207 213 237 225 232 250 224 200 215 221 193 172 183 192 181 171 172 185 190 187 188 184 179 178 177
185 185 265 203 198 194 187 182 176 186 201 202 210 206 193 208 189 169 169 169 159 173 201 201 180 185 195 180 136 136 175 200 181 188 213 189 185 188 183 192 201 195 192 202 220 210 176 215 216 111 113 155 177 207 206 197 188 195 208 204 195 188 239 256 231 227 236 239 244 250 248 231 202 177 175 184 189 178 168 177 193 193 189 189 186 183 179 178
160 210 217 170 184 186 180 176 187 194 197 208 213 204 196 201 180 171 176 181 167 49 236 201 189 192 185 180 165 128 161 203 197 206 228 201 208 212 177 199 168 146 169 206 219 214 195 206 206 173 173 199 202 181 210 220 202 201 204 203 202 191 181 223 223 203 214 249 245 264 271 257 85 54 153 169 178 173 170 179 186 188 189 188 188 186 181 180
158 215 169 156 172 174 170 181 197 185 204 213 207 202 191 184 177 171 168 175 197 93 73 225 205 194 184 180 160 133 150 185 202 209 234 224 227 234 54 24 110 147 164 196 210 213 282 223 219 212 190 200 177 76 86 298 269 247 235 219 209 200 198 213 220 182 164 217 292 310 282 273 81 47 44 61 82 126 157 174 177 184 189 184 183 183 182 185
190 198 144 157 169 169 167 199 193 186 215 204 194 194 173 174 182 173 170 186 189 158 169 206 192 196 205 173 141 160 166 182 200 203 225 234 232 227 89 82 146 163 177 198 155 161 49 217 215 223 47 143 138 136 155 117 273 253 243 224 214 213 207 214 242 160 176 195 174 221 253 245 90 49 48 48 41 55 115 175 172 174 175 174 177 178 182 186
149 95 133 173 178 178 181 194 188 197 204 187 192 197 174 207 190 177 180 189 186 174 194 208 194 200 210 164 156 181 173 185 213 205 214 225 205 87 83 201 188 178 184 188 155 170 179 188 188 192 237 217 198 203 210 194 197 227 227 213 220 221 193 164 12 105 226 214 182 211 245 211 127 49 42 58 43 130 183 184 165 155 153 162 167 172 180 180
137 105 218 199 192 193 202 197 185 197 198 192 198 195 188 213 201 189 185 181 181 181 190 209 190 180 175 145 172 197 183 196 225 210 211 224 208 72 51 314 249 200 156 85 120 176 190 189 178 190 213 218 215 223 226 190 171 214 224 202 212 212 182 166 192 218 238 217 175 213 239 152 127 162 170 176 230 218 186 171 163 141 143 157 164 172 179 175
171 202 179 169 228 231 248 293 181 193 196 197 202 195 192 194 186 285 193 180 186 187 170 111 139 155 162 174 198 219 211 213 217 205 215 210 175 63 40 6 320 310 90 72 76 114 174 216 208 212 221 220 215 270 314 124 155 192 204 190 198 206 194 184 208 219 222 181 200 224 220 164 167 188 197 199 204 226 205 170 173 171 159 166 169 173 178 177
206 206 163 157 200 219 252 281 215 203 194 191 192 185 194 197 171 145 223 200 187 181 163 42 152 178 189 193 207 223 216 211 205 211 225 210 134 69 78 50 352 29 91 95 184 114 121 235 225 227 237 238 99 333 331 296 190 198 198 192 192 196 193 195 216 219 172 153 230 217 173 210 217 182 189 201 193 221 220 185 186 189 180 177 171 173 180 183
229 204 171 174 198 198 210 213 204 208 197 188 185 177 189 195 185 180 196 184 169 178 178 214 210 204 196 188 198 212 208 207 213 217 221 204 152 132 121 156 202 154 119 137 207 131 170 233 230 229 240 238 87 352 326 320 256 208 195 197 190 186 191 201 218 218 173 201 240 167 137 218 232 190 190 189 186 210 209 183 173 168 171 174 170 174 183 186
221 342 286 316 317 195 203 194 182 194 201 188 186 186 186 193 196 191 165 129 164 197 195 212 220 209 202 194 187 194 199 199 212 216 206 193 169 164 191 214 191 163 141 155 192 147 191 229 225 217 235 235 206 344 335 1 330 281 217 206 196 193 197 205 218 218 199 230 251 255 208 244 251 228 205 168 172 199 163 133 147 158 167 171 171 179 187 190
194 235 174 138 331 206 198 177 164 187 205 192 196 202 193 198 198 187 158 157 174 187 198 217 220 201 198 201 197 211 215 204 209 206 181 178 187 188 208 207 149 134 171 175 183 179 212 219 175 156 231 235 199 150 40 45 333 278 261 239 219 206 200 208 221 218 217 240 249 258 268 268 252 198 152 110 112 112 122 162 176 171 169 168 174 187 191 193
239 311 328 172 201 184 177 170 168 187 200 193 200 197 196 210 200 178 168 183 179 173 191 210 214 190 185 201 209 222 223 202 196 175 161 177 193 192 200 180 143 157 178 181 174 177 202 206 137 161 221 228 189 168 161 101 64 286 262 247 229 210 197 205 219 212 209 229 241 243 252 256 202 119 112 123 147 158 183 193 185 175 170 170 183 192 193 195
170 326 305 220 194 172 170 173 177 190 197 195 198 188 190 209 192 166 170 222 173 188 200 203 197 169 177 206 213 215 181 124 122 111 119 139 106 83 118 149 150 164 171 175 174 171 189 188 156 187 208 227 307 163 149 113 93 254 251 231 204 200 203 205 218 218 208 213 222 227 239 243 152 140 163 172 175 190 204 200 193 190 180 181 195 199 199 195